Wind_Speed
21 22 23 23 23 24 24 25 25 25 26 26 26 26 27 27 27 28 27 27 26 26 26 27 27 27 27 27 28 29 29 28 29 29 30 30 30 30 30 30 30 29 29
22 22 23 23 23 24 25 26 26 27 27 27 28 28 28 29 28 28 28 28 27 27 27 27 28 29 28 28 29 29 29 29 30 30 31 31 31 32 31 31 32 31 32
23 23 23 24 25 25 26 26 27 27 27 28 29 29 30 29 29 28 28 28 28 28 28 28 28 29 29 29 29 29 29 30 30 30 31 32 32 32 33 33 33 33 33
24 24 24 25 26 26 27 27 28 28 28 28 29 29 28 28 29 28 28 28 28 27 28 28 29 30 30 30 30 30 30 30 31 31 32 32 33 33 33 34 34 35 34
25 26 26 27 27 28 28 28 28 28 28 28 29 28 28 27 27 28 28 28 28 28 28 28 29 29 30 30 30 30 30 30 31 33 33 33 34 34 33 33 34 34 35
26 27 27 27 28 28 29 29 28 28 28 28 28 27 26 26 26 26 27 27 27 27 28 29 28 28 29 30 30 30 30 31 31 32 33 33 34 34 35 34 34 34 35
27 27 27 27 27 28 28 28 28 28 27 27 27 26 26 26 26 26 26 26 26 26 27 28 28 28 28 29 29 30 30 31 31 32 33 33 34 34 35 36 35 35 35
27 27 27 27 28 28 28 28 28 27 27 27 27 25 25 25 25 25 25 25 25 25 26 26 26 27 27 28 29 30 30 30 31 31 32 33 34 35 35 36 36 36 36
26 27 27 27 28 28 28 27 27 26 26 27 26 25 24 24 24 25 24 25 25 25 24 25 25 26 28 28 29 30 30 31 31 32 32 33 33 34 35 35 36 36 36
26 27 27 28 27 27 27 27 26 26 26 25 24 24 24 24 24 23 24 25 25 25 24 24 25 25 27 27 28 29 30 31 32 32 33 33 34 35 35 35 36 36 37
27 27 28 27 27 26 26 26 25 25 25 24 24 24 25 25 24 24 24 25 25 25 25 25 26 26 27 27 28 29 30 31 32 32 33 33 33 34 34 34 35 36 37
27 27 28 27 27 26 26 25 24 24 24 23 23 23 23 24 24 24 24 25 25 25 25 26 27 27 27 27 28 29 30 31 32 32 32 33 33 33 33 33 34 35 36
27 26 26 26 26 25 25 24 24 24 23 23 23 23 23 23 23 24 24 24 24 25 25 26 27 26 27 27 27 28 29 30 31 32 33 33 34 33 34 33 35 35 36
26 25 25 25 25 25 24 24 23 24 23 23 23 23 23 22 23 23 24 24 24 25 25 26 26 26 26 26 27 27 28 30 31 32 33 33 33 33 34 34 35 36 37
24 24 24 24 24 24 23 23 22 22 22 22 22 22 22 22 21 22 23 23 24 25 25 25 26 26 26 26 27 27 28 29 30 30 31 32 32 33 34 35 36 37 38
23 23 23 24 24 24 23 22 22 22 21 21 21 21 22 21 21 21 22 22 23 23 23 23 25 26 26 26 26 27 27 27 28 29 30 31 32 33 34 34 36 37 38
22 22 22 23 23 22 22 21 21 21 21 21 21 21 22 21 22 22 22 22 23 23 23 23 24 25 25 24 24 25 26 27 27 28 30 31 32 33 34 34 35 36 38
21 22 22 22 22 21 21 20 20 21 21 21 21 21 21 22 22 22 21 22 22 22 22 23 23 24 24 24 24 25 25 25 25 26 27 29 30 31 33 33 34 36 37
21 21 22 22 21 21 20 19 20 20 21 20 20 21 22 22 22 22 21 21 21 21 21 22 22 22 23 22 23 23 24 24 24 24 25 27 28 30 31 32 33 35 36
20 20 21 21 22 20 20 20 20 21 21 20 20 21 21 22 22 21 20 20 20 20 21 21 21 22 22 22 22 23 23 23 24 24 24 25 26 28 29 30 31 32 34
20 20 21 21 21 21 20 21 21 21 20 20 21 21 21 21 22 21 20 19 20 20 21 21 21 22 22 22 23 23 22 23 23 23 23 23 24 25 27 28 29 30 31
21 21 21 21 22 21 21 22 22 21 21 21 20 21 21 21 21 20 20 20 21 21 22 22 22 22 22 22 23 22 22 22 22 22 22 22 23 24 25 27 28 29 30
20 21 21 22 22 21 21 21 21 21 21 20 20 20 20 20 20 20 20 21 21 21 21 21 21 22 22 22 22 22 22 21 21 21 22 21 22 22 23 25 25 27 29
20 21 21 21 21 21 21 21 20 20 20 20 20 20 20 20 21 20 20 20 20 20 21 21 21 21 21 21 22 22 22 22 22 22 22 22 22 22 23 23 24 25 27
19 19 18 18 19 19 20 20 19 19 19 19 19 20 20 20 20 20 20 19 19 20 21 20 20 20 21 21 21 22 22 23 22 22 22 23 22 22 23 23 24 25 26
17 17 16 17 18 18 18 18 18 18 18 19 19 19 19 19 19 19 19 19 20 20 20 20 20 21 21 21 21 21 22 22 22 22 22 22 22 22 22 23 24 25 25
Wind_Direction
286 287 290 290 290 290 290 289 289 290 289 287 286 286 284 283 281 280 277 273 270 267 269 268 267 266 263 261 258 257 255 254 252 252 251 248 245 244 243 243 241 241 241
286 287 288 289 290 290 291 291 290 289 288 288 288 286 282 282 281 280 278 275 271 269 268 269 268 265 265 263 262 259 256 254 253 252 250 249 248 246 245 243 241 242 241
285 286 287 288 289 289 291 291 291 290 290 288 288 287 283 280 278 277 277 277 276 272 270 269 268 266 265 263 261 261 258 254 253 253 253 252 250 247 246 245 243 242 242
287 288 288 288 289 289 290 291 291 292 291 290 289 288 283 280 277 277 276 276 276 273 271 270 269 266 264 264 263 262 259 256 253 252 252 252 251 248 248 246 245 244 243
289 291 290 289 290 289 289 289 290 290 291 290 288 286 283 281 279 277 276 275 275 273 271 270 269 267 265 264 264 262 259 257 256 255 253 252 251 248 247 245 244 244 243
290 291 291 290 290 290 290 289 289 289 290 290 289 286 283 281 279 278 277 277 275 273 271 269 269 268 266 264 263 261 261 259 258 256 254 253 251 250 248 246 245 246 245
290 292 292 291 292 292 292 290 288 288 288 288 288 287 285 284 282 279 278 278 276 273 271 269 269 269 268 265 262 261 260 260 259 257 256 254 253 252 250 248 247 246 246
290 292 291 292 293 294 293 291 287 287 287 287 286 286 284 283 282 281 279 278 277 275 272 269 268 269 269 266 263 262 261 258 257 258 258 257 257 255 251 248 247 246 245
293 292 292 293 293 294 293 291 288 287 288 287 285 285 284 282 281 280 279 279 278 276 273 271 271 270 270 269 267 265 262 258 257 257 256 256 256 255 253 251 249 247 245
293 294 293 293 293 293 293 291 288 288 287 286 286 285 284 282 281 279 279 279 279 277 275 274 274 273 271 269 268 267 265 261 259 258 257 256 256 255 254 252 251 248 247
293 295 294 294 293 293 293 291 288 288 289 288 286 285 283 282 281 279 278 279 280 278 276 276 276 275 274 273 270 268 266 262 260 259 259 257 256 254 253 252 251 248 246
296 295 294 294 294 294 294 292 290 290 290 290 288 286 285 282 279 278 278 278 278 278 277 276 276 276 274 275 271 267 265 263 262 261 260 257 255 255 254 252 251 249 247
297 298 298 297 295 295 295 293 291 290 289 288 288 286 286 283 280 279 279 277 277 277 277 278 277 276 275 274 273 271 268 265 264 263 261 259 256 254 251 251 251 250 249
298 299 299 299 298 297 295 292 291 290 288 287 287 287 286 285 283 281 280 278 278 278 278 278 276 276 277 276 274 274 272 268 267 264 260 259 258 255 252 252 251 251 251
299 299 300 301 301 299 296 293 292 291 289 287 287 287 287 286 285 284 282 280 280 279 280 279 277 278 278 277 276 276 275 273 268 265 262 260 260 257 255 254 253 253 253
300 302 303 303 302 300 297 294 292 291 290 289 290 290 288 287 287 285 283 282 282 281 281 280 279 280 279 278 278 277 276 274 269 266 264 263 261 258 257 257 257 255 254
303 304 303 304 303 303 300 297 296 294 292 290 290 290 289 289 288 287 284 282 282 281 281 280 281 283 282 282 281 279 276 275 273 269 266 264 263 259 257 259 259 258 256
304 305 305 306 305 304 302 301 298 298 297 293 291 290 292 291 290 287 284 283 282 282 282 282 284 285 287 284 282 282 280 277 275 272 268 266 264 261 258 258 259 258 257
306 306 306 306 306 305 303 301 300 300 301 298 295 293 293 293 292 290 287 285 284 284 285 286 287 289 290 288 284 283 281 279 277 275 272 269 267 264 261 260 260 259 258
308 307 306 306 306 303 304 303 303 302 301 299 297 294 293 293 293 291 289 287 287 287 287 288 290 291 291 289 288 287 285 283 282 280 277 275 272 268 264 262 261 260 258
307 306 307 308 308 305 304 307 306 306 303 301 300 297 296 294 295 293 291 289 288 287 288 288 289 291 291 290 291 288 285 285 285 283 280 279 276 271 267 263 261 260 259
305 306 306 307 307 307 305 305 307 307 303 302 301 299 297 295 295 294 293 292 290 289 288 289 291 291 292 292 292 289 286 285 285 282 280 279 277 273 271 266 264 261 260
306 306 305 306 306 307 307 309 308 306 305 302 301 300 299 297 297 296 295 295 291 290 289 289 288 289 290 290 290 289 287 285 283 282 280 280 278 274 273 271 268 263 261
309 307 305 305 306 308 308 310 310 309 307 306 304 303 301 299 300 298 299 296 293 291 290 288 287 288 289 289 288 289 288 286 284 282 282 282 280 276 274 273 270 267 264
312 312 310 309 310 312 312 312 313 311 311 310 309 307 305 303 302 300 299 297 297 296 292 288 287 288 289 289 289 288 288 287 285 283 282 283 281 279 276 275 274 271 268
317 316 315 313 314 316 316 314 313 314 314 314 313 313 311 308 306 303 301 299 298 297 295 292 289 288 288 288 289 289 290 287 285 284 282 281 279 278 278 275 273 271 270
Height
5842 5840 5838 5836 5834 5833 5831 5829 5827 5825 5823 5822 5821 5819 5817 5816 5815 5814 5814 5814 5814 5814 5814 5814 5814 5815 5816 5816 5817 5818 5819 5820 5821 5823 5824 5826 5827 5829 5831 5833 5835 5838 5840
5837 5835 5833 5831 5829 5827 5825 5823 5821 5819 5817 5816 5815 5813 5811 5809 5808 5807 5807 5806 5806 5807 5807 5807 5807 5808 5809 5809 5810 5810 5812 5813 5814 5816 5817 5819 5821 5822 5824 5826 5829 5831 5833
5832 5830 5828 5826 5824 5822 5820 5818 5815 5813 5811 5809 5807 5806 5803 5802 5801 5800 5799 5799 5799 5799 5799 5800 5800 5800 5801 5802 5802 5803 5804 5805 5807 5808 5810 5811 5813 5815 5817 5819 5821 5824 5826
5826 5824 5822 5821 5819 5816 5814 5812 5809 5807 5804 5802 5800 5798 5796 5795 5794 5793 5792 5792 5791 5791 5792 5792 5792 5792 5793 5794 5795 5796 5797 5798 5799 5800 5802 5803 5805 5807 5809 5811 5814 5816 5819
5820 5819 5817 5815 5812 5809 5807 5805 5802 5800 5798 5795 5793 5791 5789 5788 5787 5786 5785 5784 5784 5784 5784 5784 5785 5785 5785 5786 5787 5788 5789 5790 5791 5792 5793 5794 5796 5798 5800 5803 5805 5808 5811
5814 5812 5810 5808 5805 5803 5800 5798 5795 5793 5791 5789 5786 5784 5782 5781 5780 5779 5778 5777 5777 5776 5776 5777 5777 5777 5778 5778 5779 5780 5781 5782 5783 5784 5785 5786 5788 5790 5792 5794 5797 5800 5802
5808 5805 5803 5801 5798 5796 5793 5791 5788 5786 5784 5782 5780 5777 5776 5774 5773 5772 5772 5771 5770 5769 5769 5769 5769 5770 5770 5770 5771 5772 5773 5773 5774 5775 5776 5778 5780 5781 5783 5786 5788 5791 5794
5802 5799 5797 5795 5792 5789 5786 5783 5781 5779 5777 5775 5773 5771 5770 5769 5767 5766 5765 5764 5763 5763 5762 5762 5762 5762 5762 5762 5763 5763 5764 5765 5766 5767 5768 5769 5771 5772 5774 5777 5779 5782 5785
5796 5794 5791 5788 5785 5782 5779 5776 5774 5772 5771 5769 5766 5765 5764 5762 5761 5760 5759 5758 5757 5756 5756 5755 5755 5755 5755 5754 5754 5755 5755 5756 5757 5759 5760 5761 5762 5764 5766 5768 5770 5773 5776
5790 5787 5784 5781 5778 5775 5772 5769 5767 5765 5763 5762 5760 5758 5757 5756 5755 5754 5753 5751 5750 5749 5749 5748 5748 5748 5747 5747 5747 5746 5747 5747 5748 5749 5751 5752 5753 5755 5757 5759 5761 5764 5767
5783 5780 5777 5774 5771 5768 5765 5762 5760 5758 5756 5755 5753 5752 5751 5749 5748 5748 5747 5745 5744 5743 5742 5742 5741 5741 5740 5739 5738 5738 5738 5739 5739 5740 5742 5743 5744 5746 5748 5750 5752 5755 5757
5777 5774 5771 5768 5764 5761 5758 5756 5753 5751 5750 5748 5747 5745 5744 5743 5742 5741 5740 5738 5737 5736 5735 5734 5734 5733 5732 5731 5730 5730 5730 5730 5731 5731 5732 5734 5735 5737 5738 5740 5743 5745 5748
5770 5767 5764 5760 5757 5754 5752 5749 5747 5745 5743 5742 5740 5739 5737 5736 5735 5734 5732 5731 5730 5729 5728 5727 5726 5725 5725 5724 5723 5722 5721 5721 5722 5722 5723 5724 5725 5727 5729 5731 5734 5736 5739
5763 5760 5757 5754 5751 5748 5745 5743 5740 5738 5737 5735 5734 5732 5731 5730 5728 5727 5725 5724 5723 5722 5721 5720 5719 5718 5717 5716 5715 5714 5713 5713 5713 5713 5713 5714 5716 5717 5719 5721 5724 5726 5728
5757 5754 5751 5747 5744 5741 5739 5736 5734 5732 5730 5729 5727 5725 5724 5723 5721 5720 5718 5717 5717 5715 5714 5713 5711 5710 5709 5708 5707 5706 5705 5704 5703 5704 5704 5705 5706 5708 5709 5712 5714 5716 5718
5751 5747 5744 5742 5739 5736 5733 5730 5728 5726 5725 5723 5721 5719 5718 5716 5715 5713 5712 5710 5709 5708 5707 5706 5704 5702 5701 5700 5699 5698 5697 5696 5695 5695 5695 5696 5697 5698 5700 5702 5703 5705 5707
5744 5741 5739 5736 5733 5730 5727 5724 5722 5720 5718 5717 5715 5713 5711 5709 5708 5706 5705 5704 5702 5701 5700 5699 5697 5695 5694 5693 5691 5690 5689 5688 5687 5686 5686 5686 5687 5688 5690 5691 5693 5694 5696
5739 5736 5733 5730 5727 5724 5721 5719 5716 5714 5712 5710 5708 5707 5705 5703 5701 5699 5698 5696 5695 5694 5693 5692 5690 5688 5687 5685 5684 5682 5681 5679 5678 5678 5677 5677 5677 5678 5680 5681 5682 5684 5685
5734 5731 5728 5725 5722 5719 5716 5714 5711 5709 5706 5704 5702 5700 5698 5696 5694 5692 5691 5689 5688 5687 5686 5685 5683 5681 5680 5678 5676 5675 5673 5671 5670 5669 5669 5668 5668 5668 5669 5670 5672 5673 5674
5729 5727 5723 5720 5717 5714 5711 5708 5706 5703 5700 5698 5696 5694 5692 5690 5688 5686 5685 5683 5682 5680 5679 5678 5676 5674 5673 5671 5669 5667 5666 5664 5663 5661 5660 5659 5659 5658 5659 5660 5661 5662 5663
5725 5722 5718 5715 5712 5709 5706 5703 5700 5697 5695 5692 5690 5688 5686 5684 5682 5680 5678 5677 5675 5674 5672 5671 5669 5668 5666 5664 5662 5660 5658 5656 5655 5653 5652 5651 5650 5650 5650 5650 5651 5652 5653
5719 5716 5713 5710 5707 5704 5700 5697 5695 5692 5689 5687 5684 5682 5680 5678 5676 5674 5672 5670 5669 5667 5666 5664 5662 5661 5659 5657 5655 5652 5651 5650 5648 5647 5645 5644 5642 5642 5642 5642 5643 5643 5644
5714 5711 5708 5705 5701 5698 5695 5692 5689 5687 5684 5681 5678 5676 5674 5672 5669 5667 5665 5663 5662 5660 5659 5657 5655 5654 5652 5650 5648 5646 5644 5642 5641 5640 5638 5637 5635 5634 5635 5634 5634 5635 5635
5708 5705 5702 5699 5696 5693 5690 5687 5684 5681 5678 5675 5672 5670 5667 5665 5663 5661 5659 5657 5655 5653 5651 5650 5648 5647 5645 5643 5641 5639 5637 5636 5634 5633 5632 5630 5629 5628 5627 5627 5627 5626 5626
5703 5700 5697 5694 5691 5688 5685 5682 5679 5676 5673 5670 5667 5664 5661 5659 5657 5654 5652 5650 5648 5646 5644 5643 5641 5640 5638 5636 5634 5632 5631 5629 5627 5626 5624 5623 5622 5620 5620 5619 5618 5618 5617
5698 5695 5692 5689 5686 5683 5680 5677 5674 5671 5668 5665 5662 5658 5655 5653 5650 5648 5646 5644 5642 5640 5637 5635 5634 5632 5631 5629 5627 5625 5623 5621 5620 5619 5617 5615 5614 5613 5612 5611 5610 5610 5609